Guatemala City, Guatemala

2:54 PM CST on June 27, 2017 (GMT -0600)
Guatemala City

Weather History for 78641 - September, 2013

Change the Weather History Date:

Friday, September 20, 2013

  Actual Average Record
Temperature  
Mean Temperature 68 °F -  
Max Temperature 73 °F 73 °F - ()
Min Temperature 62 °F 59 °F - ()
Cooling Degree Days 2    
Growing Degree Days 18 (Base 50)    
Moisture  
Dew Point 62 °F    
Average Humidity 87    
Maximum Humidity 100    
Minimum Humidity 69    
Precipitation  
Precipitation 0.00 in - - ()
Sea Level Pressure  
Sea Level Pressure 30.20 in    
Wind  
Wind Speed 7 mph ()    
Max Wind Speed 16 mph    
Max Gust Speed -    
Visibility 5.0 miles    
Events Rain , Thunderstorm    
T = Trace of Precipitation, MM = Missing Value Source: Averaged Metar Reports

Daily Weather History Graph

Daily Weather History Graph

Search for Another Location

Airport or City:

Trip Planner

Search our weather history database for the weather conditions in past years. The results will help you decide how hot, cold, wet, or windy it might be!

Date:

Astronomy

Sep. 20, 2013 Rise Set
Actual Time 5:51 AM CST 5:59 PM CST
Civil Twilight 5:29 AM CST 6:20 PM CST
Nautical Twilight 5:04 AM CST 6:45 PM CST
Astronomical Twilight 4:39 AM CST 7:10 PM CST
Moon 6:56 PM CST (9/20) 6:47 AM CST (9/20)
Length of Visible Light 12h 51m
Length of Day
12h 08m
Full, 98% of the Moon is Illuminated
Sep 20
Full
Sep 26
Last Quarter
Oct 4
New
Oct 11
First Quarter
Oct 18
Full

Hourly Weather History & Observations

Time (CST) Temp. Dew Point Humidity Pressure Visibility Wind Dir Wind Speed Gust Speed Precip Events Conditions
12:00 AM 62.6 °F 60.8 °F 94% 30.27 in 6.2 mi SSW 4.6 mph - N/A   Overcast
1:00 AM 62.6 °F 60.8 °F 94% 30.24 in 6.2 mi SSW 9.2 mph - N/A   Light Drizzle
2:00 AM 62.6 °F 60.8 °F 94% 30.24 in 6.2 mi SSW 9.2 mph - N/A   Overcast
3:00 AM 62.6 °F 59.0 °F 88% 30.21 in 6.2 mi South 4.6 mph - N/A   Mostly Cloudy
4:00 AM 62.6 °F 60.8 °F 94% 30.21 in 4.3 mi South 6.9 mph - N/A   Mostly Cloudy
5:00 AM 62.6 °F 60.8 °F 94% 30.21 in 5.0 mi South 6.9 mph - N/A   Mostly Cloudy
6:00 AM 63 °F 62 °F 93% 29.91 in 4 mi South 6.9 mph - -   Mist
6:00 AM 62.6 °F 60.8 °F 94% 30.21 in 4.3 mi South 6.9 mph - N/A   Mostly Cloudy
7:00 AM 62.6 °F 60.8 °F 94% 30.24 in 6.2 mi South 6.9 mph - N/A   Overcast
8:00 AM 66.2 °F 62.6 °F 88% 30.24 in 6.2 mi SSW 9.2 mph - N/A   Scattered Clouds
9:00 AM 66.2 °F 62.6 °F 88% 30.24 in 6.2 mi SSW 9.2 mph - N/A   Overcast
10:00 AM 68.0 °F 62.6 °F 83% 30.24 in 6.2 mi SSW 11.5 mph - N/A   Mostly Cloudy
11:00 AM 69.8 °F 62.6 °F 78% 30.24 in 6.2 mi SSW 13.8 mph - N/A   Mostly Cloudy
12:00 PM 69.8 °F 62.6 °F 78% 30.21 in 6.2 mi South 13.8 mph - N/A   Mostly Cloudy
1:00 PM 71.6 °F 62.6 °F 73% 30.18 in 6.2 mi South 16.1 mph - N/A   Scattered Clouds
2:00 PM 73.4 °F 62.6 °F 69% 30.18 in 6.2 mi South 11.5 mph - N/A   Mostly Cloudy
3:00 PM 73.4 °F 62.6 °F 69% 30.15 in 6.2 mi South 11.5 mph - N/A   Scattered Clouds
4:00 PM 71.6 °F 62.6 °F 73% 30.15 in 6.2 mi South 11.5 mph - N/A   Mostly Cloudy
5:00 PM 69.8 °F 64.4 °F 83% 30.15 in 6.2 mi South 11.5 mph - N/A   Mostly Cloudy
6:00 PM 68.0 °F 62.6 °F 83% 30.15 in 6.2 mi South 11.5 mph - N/A   Mostly Cloudy
7:00 PM 66.2 °F 62.6 °F 88% 30.18 in 6.2 mi South 9.2 mph - N/A   Scattered Clouds
7:35 PM - - N/A% - 4.3 mi South 6.9 mph - N/A Rain , Thunderstorm Light Thunderstorms and Rain
8:00 PM 66.2 °F 64.4 °F 94% 30.21 in 4.3 mi South 6.9 mph - N/A Rain , Thunderstorm Light Thunderstorms and Rain
8:25 PM - - N/A% - 0.6 mi South 6.9 mph - N/A   Overcast
9:00 PM 64.4 °F 64.4 °F 100% 30.21 in 2.5 mi South 6.9 mph - N/A   Scattered Clouds
10:00 PM 64.4 °F 62.6 °F 94% 30.21 in 6.2 mi SSW 4.6 mph - N/A   Light Drizzle
10:20 PM - - N/A% - 4.3 mi South 5.8 mph - N/A   Mostly Cloudy
10:40 PM - - N/A% - 1.6 mi South 6.9 mph - N/A   Overcast
11:00 PM 64.4 °F 64.4 °F 100% 30.21 in 0.9 mi South 4.6 mph - N/A   Overcast
11:35 PM - - N/A% - 2.5 mi South 5.8 mph - N/A   Overcast